Regional Weather Roundup
Issued by NWS Nashville, TN

Home | Current Version | Previous Version | Text Only | Print | Product List | Glossary On
Versions: 1 2 3 4 5 6 7 8 9 10 11 12 13 14 15 16 17 18 19 20 21 22 23 24 25 26 27
000
ASUS44 KOHX 252210
RWROHX
MIDDLE TENNESSEE HOURLY WEATHER ROUNDUP
NATIONAL WEATHER SERVICE NASHVILLE TN
500 PM CDT SUN JUN 25 2017

NOTE: "FAIR" INDICATES FEW OR NO CLOUDS BELOW 12,000 FEET WITH
NO SIGNIFICANT WEATHER AND/OR OBSTRUCTIONS TO VISIBILITY.

* THESE REPORTS ARE NOT UNDER NWS QUALITY CONTROL AND MAY NOT
  REPORT WEATHER SUCH AS PRECIPITATION AND FOG.


TNZ005>011-023>034-057-059-062>066-078-080-252300
...NORTHERN MIDDLE TENNESSEE...

CITY           SKY/WX    TMP DP  RH WIND       PRES   REMARKS
CLARKSVILLE    SUNNY     81  49  32 W12       30.16F
CROSSVILLE     SUNNY     75  44  33 NW12G18   30.20F
GALLATIN       SUNNY     82  46  28 NW9       30.18F
NASHVILLE      MOSUNNY   84  45  25 NW12      30.17F
PORTLAND       SUNNY     81  48  32 N8G14     30.16F
SMYRNA         SUNNY     82  50  32 NW6       30.17F
SPARTA         SUNNY     79  48  34 VRB7G14   30.16F
SPRINGFIELD    SUNNY     81  48  32 NW10      30.16F
WEST NASHVILLE SUNNY     82  48  30 NW12      30.15S
$$
TNZ056-058-060-061-075>077-079-093>097-252300
...SOUTHERN MIDDLE TENNESSEE...

CITY           SKY/WX    TMP DP  RH WIND       PRES   REMARKS
COLUMBIA       SUNNY     82  48  30 N8        30.15F
FAYETTEVILLE   SUNNY     79  50  36 N10G17    30.16F
MCMINNVILLE    SUNNY     79  50  36 N10       30.17F
MURFREESBORO   SUNNY     81  46  29 N7        30.15F
PULASKI        SUNNY     81  48  32 N6G13     30.16F
SHELBYVILLE    SUNNY     79  50  36 N9G17     30.16F
TULLAHOMA      SUNNY     77  45  31 N9        30.18F
WINCHESTER     SUNNY     79  50  36 N10         N/A
$$


...KEY TO REMARKS...
VSB - VISIBILITY IN MILES
WCI - WIND CHILL INDEX
HX  - HEAT INDEX





USA.gov is the U.S. government's official web portal to all federal, state and local government web resources and services.